Location: Double A Airport
(32.3209°N, 97.0996°W)
Time: 20:55:16
(UTC+00:00)

Daily predictions for brighter satellites

Satellite Brightness Start Highest point End
(mag) Time Altitude Azimuth Time Altitude Azimuth Time Altitude Azimuth
ASTEX 1 3.3 12:02:13 10° N 12:07:05 66° W 12:11:57 10° SSW
SJ-12 4.1 12:08:04 10° NNE 12:11:56 69° ESE 12:15:47 10° S
Cosmos 1707 Rocket 4.0 12:11:02 29° NW 12:12:20 35° W 12:16:15 10° SSW
ARIANE 5 R/B 2.5 12:07:33 10° NNE 12:12:38 84° ESE 12:17:38 10° SSW
Okean 3 4.3 12:15:23 27° W 12:15:24 27° W 12:18:55 10° SSW
Meteor 1-22 Rocket 4.4 12:15:14 10° S 12:21:11 82° E 12:26:54 10° N
Okean 2 4.1 12:20:27 25° WNW 12:21:22 28° W 12:24:44 10° SSW
Nadezhda 4 Rocket 4.0 12:16:58 10° N 12:23:15 79° W 12:29:32 10° S
CENTAUR R/B 3.7 12:14:57 10° NNW 12:23:45 71° ENE 12:33:07 10° SE
Meteor 2-10 Rocket 3.4 12:18:50 10° SSW 12:23:56 70° W 12:29:18 10° N
Cosmos 1844 3.6 12:18:43 10° SSW 12:24:22 79° WNW 12:30:08 10° NNE
Cosmos 44 3.7 12:22:45 10° NNW 12:27:01 54° ENE 12:31:23 10° SE
CZ-2D R/B 2.8 12:23:48 10° N 12:27:12 69° WNW 12:30:35 10° SSW
Cosmos 1470 Rocket 4.3 12:23:25 10° SW 12:27:19 30° W 12:31:13 10° NNW
SKYMED 2 4.3 12:27:02 10° SSW 12:30:52 31° W 12:34:43 10° NW
Cosmos 2285 Rocket 4.3 12:30:19 10° SW 12:36:22 45° WNW 12:42:31 10° N
Cosmos 1933 Rocket 3.8 12:37:39 10° SSW 12:41:45 44° W 12:45:54 10° N
Cosmos 1825 1.4 12:40:44 10° N 12:43:44 80° W 12:46:42 10° S
IRS-P3 4.1 12:39:02 10° N 12:44:18 65° WNW 12:49:34 10° SSW
Cosmos 1869 Rocket 3.4 12:40:09 10° S 12:44:25 74° W 12:48:45 10° N
Meteor 2-5 Rocket 4.3 12:40:38 10° N 12:46:32 65° E 12:52:21 10° SSE
Cosmos 1943 3.2 12:41:49 10° NNW 12:47:24 66° WSW 12:52:54 10° S
IRS-1C 4.5 12:42:44 10° N 12:47:44 42° WNW 12:52:43 10° SW
Cosmos 1300 4.1 12:47:55 10° WSW 12:49:40 14° WNW 12:51:25 10° NW
SL-4 R/B 2.5 12:49:01 10° SSW 12:52:08 47° SE 12:55:15 10° ENE
Cosmos 2034 Rocket 4.4 12:46:49 10° SSW 12:52:33 38° W 12:58:16 10° NNW
OAO 3 Copernicus 4.3 12:50:13 10° WSW 12:55:15 85° NNW 13:00:17 10° ENE
Cosmos 1486 Rocket 4.0 12:50:49 10° SSW 12:56:02 78° WNW 13:01:19 10° NNE
Cosmos 1703 Rocket 4.0 12:54:54 10° NNW 12:58:59 40° W 13:03:01 10° SSW
SL-16 R/B 4.0 13:00:32 10° WNW 13:02:41 12° W 13:04:49 10° WSW
ADEOS Rocket 3.9 12:58:42 10° NNW 13:03:54 29° WNW 13:09:32 10° SW
NOSS 3-4 (A) 4.5 12:59:58 10° S 13:05:01 45° ESE 13:10:15 10° NE
Cosmos 1503 Rocket 4.2 13:01:57 10° SSW 13:07:09 82° ESE 13:12:19 10° NNE
